Year,Month,Day,Hour,Minute,Value (Times are PST for temperature in C)
2018,10,16,00,00,8.10
2018,10,16,00,01,8.20
2018,10,16,00,02,8.20
2018,10,16,00,03,8.30
2018,10,16,00,04,8.40
2018,10,16,00,05,8.40
2018,10,16,00,06,8.50
2018,10,16,00,07,8.60
2018,10,16,00,08,8.60
2018,10,16,00,09,8.60
2018,10,16,00,10,8.70
2018,10,16,00,11,8.70
2018,10,16,00,12,8.70
2018,10,16,00,13,8.70
2018,10,16,00,14,8.70
2018,10,16,00,15,8.70
2018,10,16,00,16,8.70
2018,10,16,00,17,8.80
2018,10,16,00,18,8.80
2018,10,16,00,19,8.80
2018,10,16,00,20,8.80
2018,10,16,00,21,8.80
2018,10,16,00,22,8.80
2018,10,16,00,23,8.80
2018,10,16,00,24,8.80
2018,10,16,00,25,8.80
2018,10,16,00,26,8.80
2018,10,16,00,27,8.80
2018,10,16,00,28,8.80
2018,10,16,00,29,8.80
2018,10,16,00,30,8.80
2018,10,16,00,31,8.80
2018,10,16,00,32,8.80
2018,10,16,00,33,8.80
2018,10,16,00,34,8.80
2018,10,16,00,35,8.80
2018,10,16,00,36,8.80
2018,10,16,00,37,8.80
2018,10,16,00,38,8.80
2018,10,16,00,39,8.80
2018,10,16,00,40,8.80
2018,10,16,00,41,8.80
2018,10,16,00,42,8.80
2018,10,16,00,43,8.80
2018,10,16,00,44,8.80
2018,10,16,00,45,8.80
2018,10,16,00,46,8.80
2018,10,16,00,47,8.80
2018,10,16,00,48,8.80
2018,10,16,00,49,8.80
2018,10,16,00,50,8.80
2018,10,16,00,51,8.80
2018,10,16,00,52,8.80
2018,10,16,00,53,8.80
2018,10,16,00,54,8.80
2018,10,16,00,55,8.80
2018,10,16,00,56,8.80
2018,10,16,00,57,8.80
2018,10,16,00,58,8.80
2018,10,16,00,59,8.80
2018,10,16,01,00,8.80
2018,10,16,01,01,8.80
2018,10,16,01,02,8.80
2018,10,16,01,03,8.80
2018,10,16,01,04,8.80
2018,10,16,01,05,8.80
2018,10,16,01,06,8.80
2018,10,16,01,07,8.80
2018,10,16,01,08,8.80
2018,10,16,01,09,8.70
2018,10,16,01,10,8.70
2018,10,16,01,11,8.70
2018,10,16,01,12,8.70
2018,10,16,01,13,8.70
2018,10,16,01,14,8.70
2018,10,16,01,15,8.70
2018,10,16,01,16,8.60
2018,10,16,01,17,8.60
2018,10,16,01,18,8.60
2018,10,16,01,19,8.60
2018,10,16,01,20,8.60
2018,10,16,01,21,8.60
2018,10,16,01,22,8.60
2018,10,16,01,23,8.60
2018,10,16,01,24,8.60
2018,10,16,01,25,8.60
2018,10,16,01,26,8.60
2018,10,16,01,27,8.60
2018,10,16,01,28,8.60
2018,10,16,01,29,8.60
2018,10,16,01,30,8.60
2018,10,16,01,31,8.60
2018,10,16,01,32,8.50
2018,10,16,01,33,8.50
2018,10,16,01,34,8.50
2018,10,16,01,35,8.50
2018,10,16,01,36,8.50
2018,10,16,01,37,8.40
2018,10,16,01,38,8.40
2018,10,16,01,39,8.40
2018,10,16,01,40,8.40
2018,10,16,01,41,8.40
2018,10,16,01,42,8.40
2018,10,16,01,43,8.40
2018,10,16,01,44,8.40
2018,10,16,01,45,8.30
2018,10,16,01,46,8.30
2018,10,16,01,47,8.30
2018,10,16,01,48,8.30
2018,10,16,01,49,8.30
2018,10,16,01,50,8.30
2018,10,16,01,51,8.30
2018,10,16,01,52,8.30
2018,10,16,01,53,8.30
2018,10,16,01,54,8.30
2018,10,16,01,55,8.20
2018,10,16,01,56,8.20
2018,10,16,01,57,8.30
2018,10,16,01,58,8.30
2018,10,16,01,59,8.30
2018,10,16,02,00,8.30
2018,10,16,02,01,8.30
2018,10,16,02,02,8.30
2018,10,16,02,03,8.30
2018,10,16,02,04,8.30
2018,10,16,02,05,8.30
2018,10,16,02,06,8.30
2018,10,16,02,07,8.30
2018,10,16,02,08,8.40
2018,10,16,02,09,8.40
2018,10,16,02,10,8.40
2018,10,16,02,11,8.40
2018,10,16,02,12,8.40
2018,10,16,02,13,8.40
2018,10,16,02,14,8.40
2018,10,16,02,15,8.40
2018,10,16,02,16,8.40
2018,10,16,02,17,8.40
2018,10,16,02,18,8.40
2018,10,16,02,19,8.40
2018,10,16,02,20,8.40
2018,10,16,02,21,8.40
2018,10,16,02,22,8.40
2018,10,16,02,23,8.40
2018,10,16,02,24,8.40
2018,10,16,02,25,8.30
2018,10,16,02,26,8.30
2018,10,16,02,27,8.30
2018,10,16,02,28,8.30
2018,10,16,02,29,8.30
2018,10,16,02,30,8.30
2018,10,16,02,31,8.30
2018,10,16,02,32,8.30
2018,10,16,02,33,8.20
2018,10,16,02,34,8.20
2018,10,16,02,35,8.20
2018,10,16,02,36,8.20
2018,10,16,02,37,8.20
2018,10,16,02,38,8.20
2018,10,16,02,39,8.20
2018,10,16,02,40,8.30
2018,10,16,02,41,8.30
2018,10,16,02,42,8.30
2018,10,16,02,43,8.30
2018,10,16,02,44,8.30
2018,10,16,02,45,8.20
2018,10,16,02,46,8.20
2018,10,16,02,47,8.20
2018,10,16,02,48,8.20
2018,10,16,02,49,8.20
2018,10,16,02,50,8.20
2018,10,16,02,51,8.20
2018,10,16,02,52,8.10
2018,10,16,02,53,8.10
2018,10,16,02,54,8.10
2018,10,16,02,55,8.10
2018,10,16,02,56,8.10
2018,10,16,02,57,8.10
2018,10,16,02,58,8.10
2018,10,16,02,59,8.10
2018,10,16,03,00,8.10
2018,10,16,03,01,8.10
2018,10,16,03,02,8.10
2018,10,16,03,03,8.10
2018,10,16,03,04,8.10
2018,10,16,03,05,8.10
2018,10,16,03,06,8.10
2018,10,16,03,07,8.10
2018,10,16,03,08,8.10
2018,10,16,03,09,8.10
2018,10,16,03,10,8.10
2018,10,16,03,11,8.10
2018,10,16,03,12,8.10
2018,10,16,03,13,8.10
2018,10,16,03,14,8.10
2018,10,16,03,15,8.10
2018,10,16,03,16,8.10
2018,10,16,03,17,8.10
2018,10,16,03,18,8.10
2018,10,16,03,19,8.10
2018,10,16,03,20,8.10
2018,10,16,03,21,8.10
2018,10,16,03,22,8.10
2018,10,16,03,23,8.10
2018,10,16,03,24,8.10
2018,10,16,03,25,8.10
2018,10,16,03,26,8.10
2018,10,16,03,27,8.10
2018,10,16,03,28,8.20
2018,10,16,03,29,8.20
2018,10,16,03,30,8.20
2018,10,16,03,31,8.20
2018,10,16,03,32,8.20
2018,10,16,03,33,8.20
2018,10,16,03,34,8.10
2018,10,16,03,35,8.10
2018,10,16,03,36,8.10
2018,10,16,03,37,8.10
2018,10,16,03,38,8.10
2018,10,16,03,39,8.10
2018,10,16,03,40,8.10
2018,10,16,03,41,8.10
2018,10,16,03,42,8.10
2018,10,16,03,43,8.10
2018,10,16,03,44,8.10
2018,10,16,03,45,8.10
2018,10,16,03,46,8.00
2018,10,16,03,47,8.00
2018,10,16,03,48,7.90
2018,10,16,03,49,7.90
2018,10,16,03,50,7.80
2018,10,16,03,51,7.80
2018,10,16,03,52,7.80
2018,10,16,03,53,7.80
2018,10,16,03,54,7.80
2018,10,16,03,55,7.80
2018,10,16,03,56,7.90
2018,10,16,03,57,7.90
2018,10,16,03,58,7.90
2018,10,16,03,59,7.90
2018,10,16,04,00,7.90
2018,10,16,04,01,7.90
2018,10,16,04,02,7.90
2018,10,16,04,03,7.90
2018,10,16,04,04,7.90
2018,10,16,04,05,7.90
2018,10,16,04,06,7.90
2018,10,16,04,07,7.90
2018,10,16,04,08,7.90
2018,10,16,04,09,7.90
2018,10,16,04,10,7.90
2018,10,16,04,11,7.90
2018,10,16,04,12,7.90
2018,10,16,04,13,7.90
2018,10,16,04,14,7.90
2018,10,16,04,15,7.90
2018,10,16,04,16,7.90
2018,10,16,04,17,7.90
2018,10,16,04,18,7.90
2018,10,16,04,19,7.90
2018,10,16,04,20,7.90
2018,10,16,04,21,7.90
2018,10,16,04,22,7.90
2018,10,16,04,23,7.90
2018,10,16,04,24,7.90
2018,10,16,04,25,7.90
2018,10,16,04,26,7.90
2018,10,16,04,27,7.90
2018,10,16,04,28,7.90
2018,10,16,04,29,7.90
2018,10,16,04,30,7.90
2018,10,16,04,31,7.90
2018,10,16,04,32,7.90
2018,10,16,04,33,7.90
2018,10,16,04,34,7.90
2018,10,16,04,35,7.90
2018,10,16,04,36,7.90
2018,10,16,04,37,7.80
2018,10,16,04,38,7.80
2018,10,16,04,39,7.80
2018,10,16,04,40,7.80
2018,10,16,04,41,7.80
2018,10,16,04,42,7.80
2018,10,16,04,43,7.90
2018,10,16,04,44,7.90
2018,10,16,04,45,7.90
2018,10,16,04,46,7.90
2018,10,16,04,47,7.90
2018,10,16,04,48,7.90
2018,10,16,04,49,7.90
2018,10,16,04,50,7.90
2018,10,16,04,51,7.90
2018,10,16,04,52,7.90
2018,10,16,04,53,7.90
2018,10,16,04,54,7.90
2018,10,16,04,55,7.90
2018,10,16,04,56,7.90
2018,10,16,04,57,7.90
2018,10,16,04,58,7.90
2018,10,16,04,59,7.90
2018,10,16,05,00,7.90
2018,10,16,05,01,7.90
2018,10,16,05,02,7.80
2018,10,16,05,03,7.80
2018,10,16,05,04,7.80
2018,10,16,05,05,7.80
2018,10,16,05,06,7.80
2018,10,16,05,07,7.80
2018,10,16,05,08,7.80
2018,10,16,05,09,7.80
2018,10,16,05,10,7.80
2018,10,16,05,11,7.80
2018,10,16,05,12,7.80
2018,10,16,05,13,7.90
2018,10,16,05,14,7.90
2018,10,16,05,15,7.90
2018,10,16,05,16,7.90
2018,10,16,05,17,7.90
2018,10,16,05,18,7.90
2018,10,16,05,19,7.90
2018,10,16,05,20,7.90
2018,10,16,05,21,7.80
2018,10,16,05,22,7.90
2018,10,16,05,23,7.80
2018,10,16,05,24,7.80
2018,10,16,05,25,7.80
2018,10,16,05,26,7.80
2018,10,16,05,27,7.80
2018,10,16,05,28,7.70
2018,10,16,05,29,7.70
2018,10,16,05,30,7.70
2018,10,16,05,31,7.70
2018,10,16,05,32,7.60
2018,10,16,05,33,7.60
2018,10,16,05,34,7.60
2018,10,16,05,35,7.50
2018,10,16,05,36,7.40
2018,10,16,05,37,7.40
2018,10,16,05,38,7.40
2018,10,16,05,39,7.40
2018,10,16,05,40,7.30
2018,10,16,05,41,7.30
2018,10,16,05,42,7.30
2018,10,16,05,43,7.30
2018,10,16,05,44,7.30
2018,10,16,05,45,7.30
2018,10,16,05,46,7.30
2018,10,16,05,47,7.30
2018,10,16,05,48,7.30
2018,10,16,05,49,7.30
2018,10,16,05,50,7.30
2018,10,16,05,51,7.30
2018,10,16,05,52,7.30
2018,10,16,05,53,7.40
2018,10,16,05,54,7.40
2018,10,16,05,55,7.40
2018,10,16,05,56,7.40
2018,10,16,05,57,7.50
2018,10,16,05,58,7.50
2018,10,16,05,59,7.50
2018,10,16,06,00,7.60
2018,10,16,06,01,7.60
2018,10,16,06,02,7.60
2018,10,16,06,03,7.60
2018,10,16,06,04,7.60
2018,10,16,06,05,7.60
2018,10,16,06,06,7.60
2018,10,16,06,07,7.60
2018,10,16,06,08,7.60
2018,10,16,06,09,7.70
2018,10,16,06,10,7.70
2018,10,16,06,11,7.70
2018,10,16,06,12,7.70
2018,10,16,06,13,7.70
2018,10,16,06,14,7.70
2018,10,16,06,15,7.70
2018,10,16,06,16,7.70
2018,10,16,06,17,7.70
2018,10,16,06,18,7.70
2018,10,16,06,19,7.70
2018,10,16,06,20,7.70
2018,10,16,06,21,7.70
2018,10,16,06,22,7.60
2018,10,16,06,23,7.60
2018,10,16,06,24,7.60
2018,10,16,06,25,7.60
2018,10,16,06,26,7.60
2018,10,16,06,27,7.60
2018,10,16,06,28,7.60
2018,10,16,06,29,7.60
2018,10,16,06,30,7.60
2018,10,16,06,31,7.60
2018,10,16,06,32,7.70
2018,10,16,06,33,7.70
2018,10,16,06,34,7.70
2018,10,16,06,35,7.70
2018,10,16,06,36,7.60
2018,10,16,06,37,7.60
2018,10,16,06,38,7.60
2018,10,16,06,39,7.60
2018,10,16,06,40,7.60
2018,10,16,06,41,7.50
2018,10,16,06,42,7.50
2018,10,16,06,43,7.50
2018,10,16,06,44,7.50
2018,10,16,06,45,7.50
2018,10,16,06,46,7.50
2018,10,16,06,47,7.50
2018,10,16,06,48,7.50
2018,10,16,06,49,7.50
2018,10,16,06,50,7.50
2018,10,16,06,51,7.50
2018,10,16,06,52,7.60
2018,10,16,06,53,7.60
2018,10,16,06,54,7.60
2018,10,16,06,55,7.60
2018,10,16,06,56,7.60
2018,10,16,06,57,7.60
2018,10,16,06,58,7.60
2018,10,16,06,59,7.60
2018,10,16,07,00,7.60
2018,10,16,07,01,7.60
2018,10,16,07,02,7.60
2018,10,16,07,03,7.60
2018,10,16,07,04,7.60
2018,10,16,07,05,7.60
2018,10,16,07,06,7.60
2018,10,16,07,07,7.60
2018,10,16,07,08,7.60
2018,10,16,07,09,7.60
2018,10,16,07,10,7.70
2018,10,16,07,11,7.70
2018,10,16,07,12,7.70
2018,10,16,07,13,7.80
2018,10,16,07,14,7.80
2018,10,16,07,15,7.80
2018,10,16,07,16,7.80
2018,10,16,07,17,7.80
2018,10,16,07,18,7.80
2018,10,16,07,19,7.80
2018,10,16,07,20,7.80
2018,10,16,07,21,7.80
2018,10,16,07,22,7.80
2018,10,16,07,23,7.80
2018,10,16,07,24,7.80
2018,10,16,07,25,7.70
2018,10,16,07,26,7.70
2018,10,16,07,27,7.70
2018,10,16,07,28,7.70
2018,10,16,07,29,7.70
2018,10,16,07,30,7.70
2018,10,16,07,31,7.70
2018,10,16,07,32,7.70
2018,10,16,07,33,7.70
2018,10,16,07,34,7.70
2018,10,16,07,35,7.70
2018,10,16,07,36,7.70
2018,10,16,07,37,7.70
2018,10,16,07,38,7.70
2018,10,16,07,39,7.70
2018,10,16,07,40,7.70
2018,10,16,07,41,7.70
2018,10,16,07,42,7.70
2018,10,16,07,43,7.70
2018,10,16,07,44,7.70
2018,10,16,07,45,7.60
2018,10,16,07,46,7.70
2018,10,16,07,47,7.60
2018,10,16,07,48,7.60
2018,10,16,07,49,7.60
2018,10,16,07,50,7.60
2018,10,16,07,51,7.60
2018,10,16,07,52,7.60
2018,10,16,07,53,7.60
2018,10,16,07,54,7.60
2018,10,16,07,55,7.60
2018,10,16,07,56,7.60
2018,10,16,07,57,7.60
2018,10,16,07,58,7.50
2018,10,16,07,59,7.50
2018,10,16,08,00,7.50
2018,10,16,08,01,7.50
2018,10,16,08,02,7.50
2018,10,16,08,03,7.50
2018,10,16,08,04,7.50
2018,10,16,08,05,7.50
2018,10,16,08,06,7.50
2018,10,16,08,07,7.50
2018,10,16,08,08,7.50
2018,10,16,08,09,7.50
2018,10,16,08,10,7.50
2018,10,16,08,11,7.60
2018,10,16,08,12,7.60
2018,10,16,08,13,7.60
2018,10,16,08,14,7.60
2018,10,16,08,15,7.60
2018,10,16,08,16,7.60
2018,10,16,08,17,7.70
2018,10,16,08,18,7.70
2018,10,16,08,19,7.70
2018,10,16,08,20,7.70
2018,10,16,08,21,7.80
2018,10,16,08,22,7.80
2018,10,16,08,23,7.80
2018,10,16,08,24,7.90
2018,10,16,08,25,7.90
2018,10,16,08,26,7.90
2018,10,16,08,27,8.00
2018,10,16,08,28,8.00
2018,10,16,08,29,8.10
2018,10,16,08,30,8.10
2018,10,16,08,31,8.10
2018,10,16,08,32,8.10
2018,10,16,08,33,8.10
2018,10,16,08,34,8.10
2018,10,16,08,35,8.20
2018,10,16,08,36,8.20
2018,10,16,08,37,8.20
2018,10,16,08,38,8.20
2018,10,16,08,39,8.30
2018,10,16,08,40,8.30
2018,10,16,08,41,8.30
2018,10,16,08,42,8.30
2018,10,16,08,43,8.30
2018,10,16,08,44,8.40
2018,10,16,08,45,8.40
2018,10,16,08,46,8.40
2018,10,16,08,47,8.40
2018,10,16,08,48,8.40
2018,10,16,08,49,8.40
2018,10,16,08,50,8.40
2018,10,16,08,51,8.40
2018,10,16,08,52,8.50
2018,10,16,08,53,8.50
2018,10,16,08,54,8.50
2018,10,16,08,55,8.50
2018,10,16,08,56,8.60
2018,10,16,08,57,8.60
2018,10,16,08,58,8.60
2018,10,16,08,59,8.60
2018,10,16,09,00,8.70
2018,10,16,09,01,8.70
2018,10,16,09,02,8.70
2018,10,16,09,03,8.70
2018,10,16,09,04,8.80
2018,10,16,09,05,8.80
2018,10,16,09,06,8.80
2018,10,16,09,07,8.90
2018,10,16,09,08,8.90
2018,10,16,09,09,8.90
2018,10,16,09,10,8.90
2018,10,16,09,11,9.00
2018,10,16,09,12,9.00
2018,10,16,09,13,9.10
2018,10,16,09,14,9.10
2018,10,16,09,15,9.20
2018,10,16,09,16,9.20
2018,10,16,09,17,9.20
2018,10,16,09,18,9.30
2018,10,16,09,19,9.30
2018,10,16,09,20,9.30
2018,10,16,09,21,9.40
2018,10,16,09,22,9.40
2018,10,16,09,23,9.40
2018,10,16,09,24,9.40
2018,10,16,09,25,9.40
2018,10,16,09,26,9.40
2018,10,16,09,27,9.40
2018,10,16,09,28,9.50
2018,10,16,09,29,9.50
2018,10,16,09,30,9.50
2018,10,16,09,31,9.60
2018,10,16,09,32,9.60
2018,10,16,09,33,9.60
2018,10,16,09,34,9.70
2018,10,16,09,35,9.70
2018,10,16,09,36,9.70
2018,10,16,09,37,9.70
2018,10,16,09,38,9.70
2018,10,16,09,39,9.70
2018,10,16,09,40,9.80
2018,10,16,09,41,9.80
2018,10,16,09,42,9.80
2018,10,16,09,43,9.90
2018,10,16,09,44,9.90
2018,10,16,09,45,10.00
2018,10,16,09,46,10.00
2018,10,16,09,47,10.10
2018,10,16,09,48,10.10
2018,10,16,09,49,10.20
2018,10,16,09,50,10.20
2018,10,16,09,51,10.30
2018,10,16,09,52,10.30
2018,10,16,09,53,10.30
2018,10,16,09,54,10.30
2018,10,16,09,55,10.30
2018,10,16,09,56,10.30
2018,10,16,09,57,10.30
2018,10,16,09,58,10.30
2018,10,16,09,59,10.40
2018,10,16,10,00,10.40
2018,10,16,10,01,10.40
2018,10,16,10,02,10.40
2018,10,16,10,03,10.40
2018,10,16,10,04,10.40
2018,10,16,10,05,10.40
2018,10,16,10,06,10.40
2018,10,16,10,07,10.40
2018,10,16,10,08,10.40
2018,10,16,10,09,10.40
2018,10,16,10,10,10.40
2018,10,16,10,11,10.40
2018,10,16,10,12,10.40
2018,10,16,10,13,10.50
2018,10,16,10,14,10.50
2018,10,16,10,15,10.50
2018,10,16,10,16,10.60
2018,10,16,10,17,10.60
2018,10,16,10,18,10.60
2018,10,16,10,19,10.70
2018,10,16,10,20,10.70
2018,10,16,10,21,10.70
2018,10,16,10,22,10.80
2018,10,16,10,23,10.80
2018,10,16,10,24,10.90
2018,10,16,10,25,10.90
2018,10,16,10,26,10.90
2018,10,16,10,27,11.00
2018,10,16,10,28,11.00
2018,10,16,10,29,11.00
2018,10,16,10,30,11.10
2018,10,16,10,31,11.10
2018,10,16,10,32,11.20
2018,10,16,10,33,11.20
2018,10,16,10,34,11.20
2018,10,16,10,35,11.30
2018,10,16,10,36,11.30
2018,10,16,10,37,11.40
2018,10,16,10,38,11.40
2018,10,16,10,39,11.50
2018,10,16,10,40,11.50
2018,10,16,10,41,11.60
2018,10,16,10,42,11.60
2018,10,16,10,43,11.70
2018,10,16,10,44,11.70
2018,10,16,10,45,11.70
2018,10,16,10,46,11.80
2018,10,16,10,47,11.80
2018,10,16,10,48,11.80
2018,10,16,10,49,11.80
2018,10,16,10,50,11.80
2018,10,16,10,51,11.80
2018,10,16,10,52,11.80
2018,10,16,10,53,11.70
2018,10,16,10,54,11.70
2018,10,16,10,55,11.60
2018,10,16,10,56,11.60
2018,10,16,10,57,11.60
2018,10,16,10,58,11.60
2018,10,16,10,59,11.60
2018,10,16,11,00,11.60
2018,10,16,11,01,11.60
2018,10,16,11,02,11.60
2018,10,16,11,03,11.70
2018,10,16,11,04,11.70
2018,10,16,11,05,11.70
2018,10,16,11,06,11.70
2018,10,16,11,07,11.80
2018,10,16,11,08,11.80
2018,10,16,11,09,11.80
2018,10,16,11,10,11.80
2018,10,16,11,11,11.80
2018,10,16,11,12,11.80
2018,10,16,11,13,11.90
2018,10,16,11,14,12.00
2018,10,16,11,15,12.00
2018,10,16,11,16,12.10
2018,10,16,11,17,12.10
2018,10,16,11,18,12.10
2018,10,16,11,19,12.10
2018,10,16,11,20,12.00
2018,10,16,11,21,12.00
2018,10,16,11,22,12.00
2018,10,16,11,23,12.00
2018,10,16,11,24,12.00
2018,10,16,11,25,12.10
2018,10,16,11,26,12.20
2018,10,16,11,27,12.20
2018,10,16,11,28,12.30
2018,10,16,11,29,12.40
2018,10,16,11,30,12.50
2018,10,16,11,31,12.50
2018,10,16,11,32,12.60
2018,10,16,11,33,12.70
2018,10,16,11,34,12.70
2018,10,16,11,35,12.80
2018,10,16,11,36,12.80
2018,10,16,11,37,12.90
2018,10,16,11,38,12.90
2018,10,16,11,39,12.90
2018,10,16,11,40,12.90
2018,10,16,11,41,12.90
2018,10,16,11,42,13.00
2018,10,16,11,43,13.00
2018,10,16,11,44,13.10
2018,10,16,11,45,13.10
2018,10,16,11,46,13.10
2018,10,16,11,47,13.10
2018,10,16,11,48,13.10
2018,10,16,11,49,13.10
2018,10,16,11,50,13.20
2018,10,16,11,51,13.20
2018,10,16,11,52,13.20
2018,10,16,11,53,13.30
2018,10,16,11,54,13.30
2018,10,16,11,55,13.40
2018,10,16,11,56,13.40
2018,10,16,11,57,13.40
2018,10,16,11,58,13.50
2018,10,16,11,59,13.60
2018,10,16,12,00,13.60
2018,10,16,12,01,13.70
2018,10,16,12,02,13.70
2018,10,16,12,03,13.80
2018,10,16,12,04,13.90
2018,10,16,12,05,13.90
2018,10,16,12,06,13.90
2018,10,16,12,07,14.00
2018,10,16,12,08,14.00
2018,10,16,12,09,14.10
2018,10,16,12,10,14.10
2018,10,16,12,11,14.10
2018,10,16,12,12,14.20
2018,10,16,12,13,14.20
2018,10,16,12,14,14.30
2018,10,16,12,15,14.30
2018,10,16,12,16,14.40
2018,10,16,12,17,14.50
2018,10,16,12,18,14.60
2018,10,16,12,19,14.70
2018,10,16,12,20,14.80
2018,10,16,12,21,15.00
2018,10,16,12,22,15.10
2018,10,16,12,23,15.30
2018,10,16,12,24,15.40
2018,10,16,12,25,15.50
2018,10,16,12,26,15.70
2018,10,16,12,27,15.80
2018,10,16,12,28,15.90
2018,10,16,12,29,16.00
2018,10,16,12,30,16.20
2018,10,16,12,31,16.30
2018,10,16,12,32,16.40
2018,10,16,12,33,16.50
2018,10,16,12,34,16.60
2018,10,16,12,35,16.60
2018,10,16,12,36,16.70
2018,10,16,12,37,16.80
2018,10,16,12,38,16.80
2018,10,16,12,39,16.90
2018,10,16,12,40,16.90
2018,10,16,12,41,16.90
2018,10,16,12,42,17.00
2018,10,16,12,43,17.00
2018,10,16,12,44,17.00
2018,10,16,12,45,16.90
2018,10,16,12,46,16.90
2018,10,16,12,47,16.90
2018,10,16,12,48,16.90
2018,10,16,12,49,16.80
2018,10,16,12,50,16.70
2018,10,16,12,51,16.60
2018,10,16,12,52,16.50
2018,10,16,12,53,16.30
2018,10,16,12,54,16.20
2018,10,16,12,55,16.10
2018,10,16,12,56,16.10
2018,10,16,12,57,16.00
2018,10,16,12,58,15.90
2018,10,16,12,59,15.90
2018,10,16,13,00,15.80
2018,10,16,13,01,15.80
2018,10,16,13,02,15.70
2018,10,16,13,03,15.70
2018,10,16,13,04,15.70
2018,10,16,13,05,15.70
2018,10,16,13,06,15.70
2018,10,16,13,07,15.70
2018,10,16,13,08,15.70
2018,10,16,13,09,15.80
2018,10,16,13,10,15.80
2018,10,16,13,11,15.90
2018,10,16,13,12,16.00
2018,10,16,13,13,16.00
2018,10,16,13,14,16.00
2018,10,16,13,15,16.00
2018,10,16,13,16,16.10
2018,10,16,13,17,16.10
2018,10,16,13,18,16.10
2018,10,16,13,19,16.10
2018,10,16,13,20,16.10
2018,10,16,13,21,16.10
2018,10,16,13,22,16.10
2018,10,16,13,23,16.10
2018,10,16,13,24,16.20
2018,10,16,13,25,16.30
2018,10,16,13,26,16.30
2018,10,16,13,27,16.40
2018,10,16,13,28,16.50
2018,10,16,13,29,16.60
2018,10,16,13,30,16.70
2018,10,16,13,31,16.90
2018,10,16,13,32,17.00
2018,10,16,13,33,17.10
2018,10,16,13,34,17.20
2018,10,16,13,35,17.30
2018,10,16,13,36,17.40
2018,10,16,13,37,17.50
2018,10,16,13,38,17.60
2018,10,16,13,39,17.70
2018,10,16,13,40,17.80
2018,10,16,13,41,17.90
2018,10,16,13,42,18.00
2018,10,16,13,43,18.10
2018,10,16,13,44,18.20
2018,10,16,13,45,18.30
2018,10,16,13,46,18.40
2018,10,16,13,47,18.50
2018,10,16,13,48,18.60
2018,10,16,13,49,18.60
2018,10,16,13,50,18.70
2018,10,16,13,51,18.70
2018,10,16,13,52,18.80
2018,10,16,13,53,18.80
2018,10,16,13,54,18.90
2018,10,16,13,55,18.90
2018,10,16,13,56,19.00
2018,10,16,13,57,19.10
2018,10,16,13,58,19.10
2018,10,16,13,59,19.10
2018,10,16,14,00,19.10
2018,10,16,14,01,19.10
2018,10,16,14,02,19.10
2018,10,16,14,03,19.10
2018,10,16,14,04,19.10
2018,10,16,14,05,19.00
2018,10,16,14,06,19.00
2018,10,16,14,07,18.90
2018,10,16,14,08,18.90
2018,10,16,14,09,18.90
2018,10,16,14,10,18.90
2018,10,16,14,11,18.90
2018,10,16,14,12,18.90
2018,10,16,14,13,18.80
2018,10,16,14,14,18.80
2018,10,16,14,15,18.90
2018,10,16,14,16,18.90
2018,10,16,14,17,18.90
2018,10,16,14,18,18.90
2018,10,16,14,19,18.80
2018,10,16,14,20,18.70
2018,10,16,14,21,18.60
2018,10,16,14,22,18.60
2018,10,16,14,23,18.50
2018,10,16,14,24,18.50
2018,10,16,14,25,18.40
2018,10,16,14,26,18.40
2018,10,16,14,27,18.40
2018,10,16,14,28,18.40
2018,10,16,14,29,18.40
2018,10,16,14,30,18.40
2018,10,16,14,31,18.50
2018,10,16,14,32,18.50
2018,10,16,14,33,18.60
2018,10,16,14,34,18.70
2018,10,16,14,35,18.80
2018,10,16,14,36,18.90
2018,10,16,14,37,19.00
2018,10,16,14,38,19.10
2018,10,16,14,39,19.20
2018,10,16,14,40,19.30
2018,10,16,14,41,19.40
2018,10,16,14,42,19.50
2018,10,16,14,43,19.60
2018,10,16,14,44,19.70
2018,10,16,14,45,19.80
2018,10,16,14,46,19.80
2018,10,16,14,47,19.90
2018,10,16,14,48,19.80
2018,10,16,14,49,19.80
2018,10,16,14,50,19.80
2018,10,16,14,51,19.70
2018,10,16,14,52,19.60
2018,10,16,14,53,19.50
2018,10,16,14,54,19.30
2018,10,16,14,55,19.10
2018,10,16,14,56,19.00
2018,10,16,14,57,19.00
2018,10,16,14,58,18.90
2018,10,16,14,59,19.00
2018,10,16,15,00,19.00
2018,10,16,15,01,19.00
2018,10,16,15,02,19.00
2018,10,16,15,03,19.00
2018,10,16,15,04,19.00
2018,10,16,15,05,18.90
2018,10,16,15,06,19.00
2018,10,16,15,07,19.00
2018,10,16,15,08,19.10
2018,10,16,15,09,19.10
2018,10,16,15,10,19.00
2018,10,16,15,11,18.90
2018,10,16,15,12,19.00
2018,10,16,15,13,19.00
2018,10,16,15,14,19.00
2018,10,16,15,15,19.00
2018,10,16,15,16,19.00
2018,10,16,15,17,19.10
2018,10,16,15,18,19.10
2018,10,16,15,19,19.10
2018,10,16,15,20,19.10
2018,10,16,15,21,19.20
2018,10,16,15,22,19.20
2018,10,16,15,23,19.20
2018,10,16,15,24,19.20
2018,10,16,15,25,19.20
2018,10,16,15,26,19.20
2018,10,16,15,27,19.10
2018,10,16,15,28,19.10
2018,10,16,15,29,19.00
2018,10,16,15,30,19.10
2018,10,16,15,31,19.10
2018,10,16,15,32,19.10
2018,10,16,15,33,19.10
2018,10,16,15,34,19.20
2018,10,16,15,35,19.10
2018,10,16,15,36,19.10
2018,10,16,15,37,19.10
2018,10,16,15,38,19.10
2018,10,16,15,39,19.10
2018,10,16,15,40,19.10
2018,10,16,15,41,19.10
2018,10,16,15,42,19.10
2018,10,16,15,43,19.20
2018,10,16,15,44,19.20
2018,10,16,15,45,19.20
2018,10,16,15,46,19.20
2018,10,16,15,47,19.30
2018,10,16,15,48,19.20
2018,10,16,15,49,19.20
2018,10,16,15,50,19.20
2018,10,16,15,51,19.10
2018,10,16,15,52,19.10
2018,10,16,15,53,19.10
2018,10,16,15,54,19.10
2018,10,16,15,55,19.20
2018,10,16,15,56,19.20
2018,10,16,15,57,19.20
2018,10,16,15,58,19.20
2018,10,16,15,59,19.20
2018,10,16,16,00,19.20
2018,10,16,16,01,19.20
2018,10,16,16,02,19.20
2018,10,16,16,03,19.20
2018,10,16,16,04,19.20
2018,10,16,16,05,19.20
2018,10,16,16,06,19.30
2018,10,16,16,07,19.30
2018,10,16,16,08,19.20
2018,10,16,16,09,19.20
2018,10,16,16,10,19.20
2018,10,16,16,11,19.20
2018,10,16,16,12,19.10
2018,10,16,16,13,19.10
2018,10,16,16,14,19.10
2018,10,16,16,15,19.10
2018,10,16,16,16,19.10
2018,10,16,16,17,19.20
2018,10,16,16,18,19.20
2018,10,16,16,19,19.20
2018,10,16,16,20,19.20
2018,10,16,16,21,19.20
2018,10,16,16,22,19.30
2018,10,16,16,23,19.40
2018,10,16,16,24,19.40
2018,10,16,16,25,19.50
2018,10,16,16,26,19.50
2018,10,16,16,27,19.50
2018,10,16,16,28,19.50
2018,10,16,16,29,19.50
2018,10,16,16,30,19.50
2018,10,16,16,31,19.50
2018,10,16,16,32,19.50
2018,10,16,16,33,19.60
2018,10,16,16,34,19.60
2018,10,16,16,35,19.60
2018,10,16,16,36,19.60
2018,10,16,16,37,19.60
2018,10,16,16,38,19.60
2018,10,16,16,39,19.60
2018,10,16,16,40,19.70
2018,10,16,16,41,19.70
2018,10,16,16,42,19.70
2018,10,16,16,43,19.70
2018,10,16,16,44,19.70
2018,10,16,16,45,19.70
2018,10,16,16,46,19.70
2018,10,16,16,47,19.70
2018,10,16,16,48,19.60
2018,10,16,16,49,19.60
2018,10,16,16,50,19.50
2018,10,16,16,51,19.50
2018,10,16,16,52,19.40
2018,10,16,16,53,19.30
2018,10,16,16,54,19.20
2018,10,16,16,55,19.10
2018,10,16,16,56,19.00
2018,10,16,16,57,19.00
2018,10,16,16,58,18.90
2018,10,16,16,59,18.90
2018,10,16,17,00,18.90
2018,10,16,17,01,19.00
2018,10,16,17,02,19.00
2018,10,16,17,03,19.10
2018,10,16,17,04,19.10
2018,10,16,17,05,19.10
2018,10,16,17,06,19.10
2018,10,16,17,07,19.10
2018,10,16,17,08,19.10
2018,10,16,17,09,19.10
2018,10,16,17,10,19.00
2018,10,16,17,11,19.00
2018,10,16,17,12,19.00
2018,10,16,17,13,18.90
2018,10,16,17,14,18.90
2018,10,16,17,15,18.80
2018,10,16,17,16,18.80
2018,10,16,17,17,18.70
2018,10,16,17,18,18.70
2018,10,16,17,19,18.60
2018,10,16,17,20,18.50
2018,10,16,17,21,18.40
2018,10,16,17,22,18.30
2018,10,16,17,23,18.20
2018,10,16,17,24,18.10
2018,10,16,17,25,18.00
2018,10,16,17,26,17.80
2018,10,16,17,27,17.70
2018,10,16,17,28,17.60
2018,10,16,17,29,17.50
2018,10,16,17,30,17.40
2018,10,16,17,31,17.30
2018,10,16,17,32,17.30
2018,10,16,17,33,17.20
2018,10,16,17,34,17.10
2018,10,16,17,35,17.10
2018,10,16,17,36,17.00
2018,10,16,17,37,16.90
2018,10,16,17,38,16.90
2018,10,16,17,39,16.90
2018,10,16,17,40,16.80
2018,10,16,17,41,16.80
2018,10,16,17,42,16.80
2018,10,16,17,43,16.80
2018,10,16,17,44,16.70